Location: Unspecified
(39.2007°S, 0.0000°E)
Time: 23:18:09
(UTC+00:00)

Transit 2A - Visible Passes

Search period start: 04 April 2026 00:00
Search period end: 14 April 2026 00:00
Orbit: 591 x 953 km, 66.7° (Epoch: 29 March)

Date Brightness Start Highest point End Pass type
(mag) Time Alt. Az. Time Alt. Az. Time Alt. Az.
7 Apr 8.6 20:52:19 10° S 20:52:36 11° S 20:52:36 11° S visible
8 Apr 8.3 20:16:22 10° S 20:17:12 13° S 20:17:12 13° S visible
9 Apr 8.2 19:40:40 10° S 19:41:50 13° SSE 19:41:50 13° SSE visible
9 Apr 8.9 21:21:57 10° SSW 21:22:10 11° SSW 21:22:10 11° SSW visible
10 Apr 8.2 19:06:00 10° SSE 19:06:31 10° SE 19:06:31 10° SE visible
10 Apr 8.3 20:45:37 10° SSW 20:46:51 17° SSW 20:46:51 17° SSW visible
11 Apr 7.8 20:09:24 10° SSW 20:11:36 23° S 20:11:36 23° S visible
12 Apr 7.5 19:33:20 10° S 19:36:24 24° SSE 19:36:24 24° SSE visible
12 Apr 8.7 21:15:50 10° SW 21:16:44 15° SW 21:16:44 15° SW visible
13 Apr 7.5 18:57:26 10° S 19:01:14 19° SE 19:01:17 19° SE visible
13 Apr 7.9 20:39:16 10° SSW 20:41:38 27° SW 20:41:38 27° SW visible
